Pittsfield, MA

10:50 PM EDT on October 15, 2019 (GMT -0400)
Pittsfield Municipal

Weather History for KPSF - June, 2019

Change the Weather History Date:

Wednesday, June 5, 2019

  Actual Average Record
Temperature  
Mean Temperature 66 °F 61 °F  
Max Temperature 79 °F 72 °F 93 °F (1930)
Min Temperature 52 °F 50 °F 34 °F (1964)
Degree Days  
Heating Degree Days 0 5  
Month to date heating degree days 30 29  
Since 1 June heating degree days 30 29  
Since 1 July heating degree days 6935 7389  
Cooling Degree Days 0 1  
Month to date cooling degree days 1 5  
Year to date cooling degree days 7 18  
Since 1 June cooling degree days 1 5  
Growing Degree Days 16 (Base 50)    
Moisture  
Dew Point 55 °F    
Average Humidity 67    
Maximum Humidity 93    
Minimum Humidity 47    
Precipitation  
Precipitation 0.31 in 0.19 in 1.18 in (2016)
Month to date precipitation 0.79 0.90  
Year to date precipitation 18.51 17.94  
Sea Level Pressure  
Sea Level Pressure 29.76 in    
Wind  
Wind Speed 6 mph ()    
Max Wind Speed 17 mph    
Max Gust Speed 28 mph    
Visibility 8.0 miles    
Events Rain    
T = Trace of Precipitation, MM = Missing Value Source: Averaged Metar Reports

Daily Weather History Graph

Daily Weather History Graph

Search for Another Location

Airport or City:

Astronomy

Jun. 05, 2019 Rise Set
Actual Time 5:17 AM EDT 8:26 PM EDT
Civil Twilight 4:42 AM EDT 9:00 PM EDT
Nautical Twilight 3:58 AM EDT 9:44 PM EDT
Astronomical Twilight 3:06 AM EDT 10:37 PM EDT
Moon 7:19 AM EDT (6/5) 10:50 PM EDT (6/5)
Length of Visible Light 16h 17m
Length of Day
15h 09m
Waxing Crescent, 6% of the Moon is Illuminated
Jun 5
Waxing Crescent
Jun 10
First Quarter
Jun 17
Full
Jun 25
Last Quarter
Jul 2
New

Hourly Weather History & Observations

Time (EDT) Temp. Dew Point Humidity Pressure Visibility Wind Dir Wind Speed Gust Speed Precip Events Conditions
12:54 AM 52.0 °F 48.0 °F 86% 29.88 in 10.0 mi Calm Calm - N/A   Overcast
1:54 AM 52.0 °F 48.0 °F 86% 29.86 in 10.0 mi North 3.5 mph - N/A   Overcast
2:54 AM 60.1 °F 43.0 °F 53% 29.83 in 10.0 mi SW 10.4 mph 23.0 mph N/A   Overcast
3:54 AM 61.0 °F 43.0 °F 52% 29.80 in 10.0 mi SW 13.8 mph 25.3 mph N/A   Mostly Cloudy
4:54 AM 60.1 °F 44.1 °F 55% 29.81 in 10.0 mi SW 13.8 mph - N/A   Clear
5:54 AM 60.1 °F 45.0 °F 57% 29.82 in 10.0 mi SW 11.5 mph 19.6 mph N/A   Scattered Clouds
6:54 AM 60.1 °F 46.9 °F 62% 29.83 in 10.0 mi WNW 6.9 mph - N/A   Overcast
7:54 AM 63.0 °F 48.0 °F 58% 29.84 in 10.0 mi West 9.2 mph - N/A   Scattered Clouds
8:54 AM 66.0 °F 51.1 °F 59% 29.83 in 10.0 mi WSW 10.4 mph - N/A   Scattered Clouds
9:54 AM 69.1 °F 52.0 °F 54% 29.82 in 10.0 mi SW 9.2 mph - N/A   Clear
10:54 AM 72.0 °F 54.0 °F 53% 29.81 in 10.0 mi SW 9.2 mph - N/A   Clear
11:54 AM 73.9 °F 55.0 °F 52% 29.79 in 10.0 mi WSW 13.8 mph - N/A   Partly Cloudy
12:54 PM 75.9 °F 55.9 °F 50% 29.77 in 10.0 mi West 10.4 mph - N/A   Clear
1:54 PM 75.9 °F 55.9 °F 50% 29.75 in 10.0 mi SSW 9.2 mph - N/A   Scattered Clouds
2:54 PM 77.0 °F 55.9 °F 48% 29.72 in 10.0 mi SSW 4.6 mph - N/A   Partly Cloudy
3:54 PM 75.9 °F 57.0 °F 52% 29.70 in 10.0 mi South 10.4 mph - N/A   Mostly Cloudy
4:54 PM 77.0 °F 55.0 °F 47% 29.69 in 10.0 mi SW 6.9 mph - N/A   Mostly Cloudy
5:54 PM 75.0 °F 57.0 °F 53% 29.68 in 10.0 mi South 10.4 mph - N/A   Clear
6:54 PM 73.0 °F 57.0 °F 57% 29.68 in 10.0 mi South 9.2 mph - N/A   Mostly Cloudy
7:54 PM 72.0 °F 55.9 °F 57% 29.66 in 10.0 mi SSE 11.5 mph - N/A   Overcast
8:54 PM 66.9 °F 60.1 °F 79% 29.68 in 9.0 mi NW 3.5 mph - 0.02 in Rain Light Rain
9:54 PM 64.9 °F 62.1 °F 90% 29.68 in 3.0 mi Calm Calm - 0.04 in Rain Light Rain
9:58 PM 64.9 °F 62.1 °F 90% 29.75 in 1.8 mi WNW 6.9 mph - 0.06 in Rain Heavy Rain
10:09 PM 64.9 °F 62.1 °F 90% 29.75 in 2.0 mi Calm Calm - 0.11 in Rain Light Rain
10:11 PM 64.9 °F 62.1 °F 90% 29.75 in 3.0 mi Calm Calm - 0.12 in Rain Light Rain
10:26 PM 64.9 °F 63.0 °F 93% 29.75 in 2.5 mi NW 5.8 mph - 0.18 in Rain Light Rain
10:54 PM 64.9 °F 62.1 °F 90% 29.65 in 5.0 mi Calm Calm - 0.24 in Rain Light Rain
11:07 PM 64.0 °F 62.1 °F 93% 29.72 in 3.0 mi ENE 3.5 mph - 0.00 in   Overcast
11:54 PM 64.9 °F 62.1 °F 90% 29.63 in 2.5 mi Calm Calm - 0.00 in   Overcast